Location: Medlow Airstrip Trail, Medlow Bath NSW 2780, Australia
(33.6682°S, 150.3233°E)
Time: 12:32:36
(UTC+10:00)

N. Korean satellite - Visible Passes

Search period start: 18 August 2019 00:00
Search period end: 28 August 2019 00:00
Orbit: 457 x 507 km, 97.2° (Epoch: 16 August)

Date Brightness Start Highest point End Pass type
(mag) Time Alt. Az. Time Alt. Az. Time Alt. Az.
18 Aug 9.9 04:14:18 10° E 04:15:08 11° ESE 04:15:59 10° SE visible
18 Aug 7.2 05:45:01 10° NNW 05:48:11 32° W 05:51:22 10° SSW visible
18 Aug 9.6 18:49:12 10° SSW 18:51:27 16° WSW 18:53:42 10° WNW visible
19 Aug 6.3 05:19:31 10° N 05:23:00 81° W 05:26:30 10° SSW visible
19 Aug 8.4 18:23:11 10° S 18:26:27 34° WSW 18:29:43 10° NW visible
20 Aug 7.8 04:54:37 10° NE 04:57:53 40° ESE 05:01:11 10° S visible
20 Aug 6.7 17:57:46 10° S 18:01:22 81° WSW 18:04:59 10° NNW visible
21 Aug 9.3 04:30:25 10° ENE 04:32:53 18° ESE 04:35:21 10° SSE visible
21 Aug 8.0 06:03:41 10° NW 06:06:09 18° W 06:08:37 10° SW visible
22 Aug 6.9 05:37:36 10° N 05:40:54 41° W 05:44:13 10° SSW visible
22 Aug 9.4 18:41:34 10° SSW 18:44:15 20° WSW 18:46:56 10° WNW visible
23 Aug 6.5 05:12:17 10° NNE 05:15:44 78° ESE 05:19:13 10° S visible
23 Aug 8.0 18:15:47 10° S 18:19:14 43° WSW 18:22:41 10° NNW visible
24 Aug 8.3 04:47:32 10° NE 04:50:39 32° ESE 04:53:47 10° S visible
25 Aug 9.6 04:23:38 10° ENE 04:25:39 15° ESE 04:27:41 10° SE visible
25 Aug 7.7 05:56:03 10° NNW 05:58:49 22° W 06:01:38 10° SW visible
25 Aug 9.9 19:00:36 10° SW 19:01:59 12° WSW 19:03:23 10° W visible
26 Aug 6.6 05:30:13 10° N 05:33:36 53° W 05:37:01 10° SSW visible
26 Aug 9.1 18:34:02 10° SSW 18:37:02 24° WSW 18:40:03 10° NW visible
27 Aug 7.0 05:05:03 10° NNE 05:08:26 60° ESE 05:11:54 10° S visible
27 Aug 7.5 18:08:24 10° S 18:11:59 55° WSW 18:15:35 10° NNW visible
